Location: Unspecified
(0.0000°N, 0.0000°E)
Time: 15:38:44
(UTC+00:00)

Transit 4B - Pass Details

Date: 19 August 2024
Orbit: 947 x 1097 km, 32.4° (Epoch: 17 September)

Event Time Altitude Azimuth Distance (km) Brightness Sun altitude
Rises 19:23:08 0° 320° (NW) 3,665 12.4 -19.4°
Reaches altitude 10° 19:26:03 10° 329° (NNW) 2,699 11.4 -20.1°
Maximum altitude 19:31:52 35° 33° (NNE) 1,495 9.3 -21.6°
Enters shadow 19:33:21 31° 60° (ENE) 1,597 9.2 -21.9°
